Total_Precipitation_Accumulation
2.26 2.46 2.84 3.23 3.49 3.67 3.78 4.10 4.26 4.03 3.60 3.21 2.74 2.60 2.52 2.30 2.10 2.01 1.85 2.03 1.99 2.22 2.57 2.33 2.59 2.24 2.25 2.43 2.48 2.73 2.67 2.36 2.29 2.69 2.74 2.16 1.73 1.79 1.68 1.64 1.86 1.86 1.98
1.89 1.97 2.11 2.45 2.64 2.88 3.16 3.49 3.73 3.57 3.03 2.80 2.61 2.50 2.46 2.29 2.28 2.19 2.19 1.96 1.96 2.19 2.24 2.59 2.39 2.40 2.50 2.54 2.65 2.80 2.80 2.51 2.42 2.83 3.17 2.78 2.67 2.32 1.56 1.64 1.79 1.81 2.04
1.60 1.71 1.75 1.87 2.12 2.70 2.93 2.82 3.04 3.23 2.96 2.84 2.78 2.67 2.64 2.44 2.53 2.49 2.37 2.00 1.88 1.88 2.07 2.25 2.26 2.47 2.27 2.61 2.84 2.79 2.90 2.89 2.71 2.76 3.17 3.16 3.01 2.53 1.98 1.62 1.61 1.83 2.21
1.19 1.41 1.38 1.44 1.68 1.99 2.29 2.63 2.94 3.02 2.92 2.78 2.60 2.47 2.26 2.20 2.22 2.22 2.22 2.11 1.99 1.86 1.95 2.10 2.37 2.53 2.26 2.79 2.40 2.54 2.78 2.93 2.76 2.75 2.58 2.66 2.87 2.92 2.68 2.17 1.73 1.72 1.94
0.75 0.93 1.07 1.20 1.28 1.42 1.82 2.39 2.86 3.08 2.95 2.61 2.47 2.57 2.40 2.30 2.25 2.14 2.34 2.19 2.04 1.87 1.79 2.07 2.33 2.45 2.33 2.48 2.54 2.81 2.71 2.64 2.64 2.69 2.74 2.84 2.79 2.56 2.72 2.64 2.32 2.03 1.59
0.55 0.63 0.76 0.99 1.13 1.22 1.49 1.94 2.36 2.61 2.67 2.53 2.41 2.48 2.55 2.49 2.34 2.17 2.16 2.00 1.96 1.90 1.84 2.03 2.33 2.30 2.33 2.49 2.48 2.63 2.62 2.67 2.75 2.58 2.52 2.76 2.73 2.63 2.72 2.41 2.22 2.17 1.59
0.53 0.65 0.74 0.87 0.90 0.98 1.25 1.55 1.77 1.96 2.17 2.33 2.38 2.32 2.47 2.52 2.30 2.07 2.07 2.04 1.90 1.90 1.97 2.12 2.40 2.30 2.36 2.41 2.65 2.74 2.68 2.66 2.68 2.52 2.37 2.35 2.23 2.37 2.54 2.62 2.29 2.06 1.59
0.53 0.65 0.79 0.87 0.82 0.86 1.09 1.31 1.50 1.73 2.00 2.16 2.23 2.18 2.14 2.05 2.01 2.13 2.03 2.00 1.95 1.90 1.85 1.99 2.03 2.00 2.09 2.16 2.66 2.53 2.51 2.62 2.55 2.28 2.53 2.39 2.05 2.16 2.32 2.60 2.86 2.57 2.09
0.66 0.75 0.90 0.94 0.84 0.89 1.08 1.19 1.37 1.58 1.73 1.99 2.15 2.06 2.02 1.89 1.87 1.92 1.88 1.83 1.96 1.92 1.84 1.79 1.84 1.90 2.07 2.26 2.46 2.37 2.48 2.69 2.54 2.44 2.59 2.37 2.13 2.10 2.05 2.36 2.80 3.11 2.82
0.83 0.96 0.96 0.99 0.95 1.00 1.19 1.21 1.32 1.44 1.48 1.64 1.72 1.61 1.79 1.82 1.94 1.92 1.83 1.76 1.77 1.81 1.84 1.88 1.88 1.96 2.05 2.26 2.46 2.46 2.61 2.71 2.57 2.58 2.64 2.48 2.26 2.34 2.17 2.22 2.54 2.83 3.04
0.84 0.96 0.93 0.92 0.89 0.95 1.05 1.06 1.19 1.30 1.35 1.50 1.57 1.63 1.72 1.79 1.84 1.87 1.85 1.84 1.86 1.87 1.88 1.97 2.01 2.01 2.04 2.22 2.41 2.31 2.55 2.70 2.75 2.58 2.53 2.49 2.52 2.54 2.38 2.45 2.56 2.64 2.95
0.66 0.88 0.95 0.98 0.79 0.85 0.92 0.97 1.09 1.22 1.29 1.46 1.59 1.66 1.83 1.88 1.83 1.86 2.04 2.04 2.00 1.97 1.97 2.06 2.14 2.11 2.13 2.27 2.26 2.12 2.24 2.45 2.65 2.86 2.98 2.74 2.73 2.74 2.57 2.58 2.58 2.63 2.87
0.68 0.83 0.93 0.85 0.77 0.79 0.87 0.91 1.01 1.13 1.24 1.39 1.54 1.75 1.84 1.91 2.04 2.21 2.36 2.37 2.29 2.24 2.24 2.30 2.24 2.25 2.31 2.30 2.21 2.23 2.26 2.36 2.44 2.70 2.94 2.92 3.06 2.82 2.83 2.75 2.64 2.64 2.65
0.64 0.65 0.82 0.88 0.81 0.78 0.81 0.86 0.99 1.14 1.31 1.57 1.75 1.89 2.08 2.22 2.33 2.30 2.36 2.37 2.38 2.41 2.41 2.46 2.40 2.35 2.38 2.40 2.39 2.39 2.35 2.40 2.38 2.43 2.55 2.66 2.94 2.92 2.96 2.79 2.80 2.92 2.97
0.62 0.76 0.89 1.06 1.05 0.96 0.89 0.93 1.16 1.38 1.60 1.87 1.97 2.01 2.10 2.24 2.43 2.59 2.61 2.57 2.54 2.47 2.63 2.62 2.54 2.54 2.55 2.35 2.47 2.69 2.65 2.70 2.49 2.40 2.36 2.34 2.57 2.65 2.72 2.48 2.64 2.91 2.96
0.73 0.89 1.03 1.17 1.27 1.30 1.28 1.31 1.46 1.73 2.04 2.35 2.47 2.58 2.66 2.74 2.84 2.93 2.94 2.96 2.89 2.82 2.74 2.62 2.68 2.68 2.44 2.58 2.65 2.57 2.60 2.80 2.78 2.63 2.56 2.43 2.38 2.37 2.41 2.44 2.52 2.65 2.66
0.88 1.00 1.11 1.20 1.36 1.40 1.48 1.67 1.85 2.09 2.33 2.52 2.63 2.75 2.85 3.00 3.14 3.17 3.18 3.03 2.95 2.86 2.74 2.73 2.79 2.72 2.75 2.72 2.51 2.37 2.35 2.43 2.54 2.60 2.58 2.30 2.15 2.37 2.27 2.44 2.47 2.28 2.22
1.03 1.07 1.14 1.26 1.37 1.50 1.68 1.87 2.02 2.15 2.46 2.69 2.79 2.84 2.89 2.96 3.14 3.33 3.22 3.05 3.00 2.93 2.87 2.81 2.70 2.63 2.54 2.58 2.35 2.34 2.20 2.14 2.10 2.23 2.35 2.30 2.19 2.23 2.32 2.25 2.02 1.83 1.83
1.02 1.09 1.21 1.32 1.45 1.53 1.59 1.61 1.74 1.94 2.18 2.41 2.60 2.62 2.75 2.92 3.01 3.05 3.06 3.11 3.07 2.85 2.70 2.59 2.56 2.53 2.58 2.80 2.53 2.38 2.15 2.13 1.99 1.98 1.98 2.01 1.89 2.04 2.13 2.02 1.80 1.64 1.60
1.07 1.16 1.31 1.39 1.39 1.43 1.46 1.54 1.70 1.93 2.15 2.36 2.57 2.75 2.89 3.02 3.03 3.07 3.17 3.19 3.14 3.09 3.06 2.93 2.84 2.75 2.71 2.91 2.65 2.44 2.19 2.17 2.10 2.09 2.05 2.11 1.88 1.80 1.76 1.68 1.68 1.50 1.40
1.05 1.14 1.30 1.45 1.47 1.45 1.62 1.80 1.94 2.10 2.28 2.40 2.49 2.64 2.83 3.05 3.29 3.46 3.38 3.34 3.29 3.21 3.04 2.86 2.72 2.67 2.65 2.62 2.43 2.27 1.98 1.92 1.98 1.86 1.74 1.77 1.80 1.58 1.43 1.41 1.37 1.31 1.37
0.99 1.18 1.31 1.43 1.57 1.68 1.83 1.99 2.03 2.10 2.30 2.52 2.60 2.67 2.86 2.94 3.09 3.34 3.35 3.27 3.24 3.15 3.05 2.97 2.87 2.78 2.61 2.36 2.14 2.00 1.85 1.82 1.77 1.81 1.80 1.84 1.87 1.61 1.46 1.30 1.18 1.23 1.23
1.05 1.18 1.30 1.45 1.55 1.73 1.92 2.08 2.17 2.23 2.33 2.47 2.64 2.81 2.91 2.97 3.08 3.25 3.30 3.27 3.18 3.06 2.92 2.77 2.55 2.53 2.57 2.46 2.22 1.95 1.76 1.71 1.61 1.78 2.08 2.10 2.03 1.80 1.51 1.40 1.40 1.35 1.23
1.26 1.30 1.39 1.47 1.56 1.66 1.86 2.06 2.19 2.24 2.36 2.43 2.49 2.64 2.78 2.90 3.07 3.09 2.96 2.84 2.71 2.64 2.60 2.43 2.30 2.32 2.38 2.27 2.17 2.01 1.88 1.84 1.72 1.76 2.02 2.18 2.16 2.02 1.81 1.72 1.62 1.42 1.35
1.33 1.38 1.46 1.56 1.60 1.64 1.73 1.97 2.18 2.28 2.33 2.45 2.51 2.50 2.52 2.60 2.76 2.84 2.80 2.67 2.50 2.37 2.30 2.17 2.16 2.15 2.11 2.14 2.17 1.99 1.86 1.84 1.88 1.97 2.14 2.28 2.36 2.36 2.28 2.17 2.08 1.95 1.80
1.44 1.47 1.51 1.54 1.58 1.68 1.80 1.91 2.18 2.45 2.54 2.52 2.39 2.31 2.23 2.23 2.29 2.31 2.34 2.46 2.35 2.34 2.20 2.07 1.99 1.91 1.94 1.98 1.94 1.83 1.76 1.78 1.90 1.93 2.01 2.24 2.42 2.50 2.57 2.60 2.49 2.27 2.08